Location: Barruelo
(41.2448°N, 3.8231°W)
Time: 20:22:12
(UTC+00:00)

Cosmos 1244 Rocket - Pass Details

Date: 11 December 2025
Orbit: 952 x 997 km, 82.9° (Epoch: 11 January)

Event Time Altitude Azimuth Distance (km) Brightness Sun altitude
Rises 18:25:21 0° 356° (N) 3,697 7.4 -18.0°
Reaches altitude 10° 18:27:57 10° 1° (N) 2,738 6.7 -18.4°
Maximum altitude 18:34:07 57° 79° (E) 1,133 4.5 -19.5°
Drops below altitude 10° 18:40:10 10° 158° (SSE) 2,690 6.7 -20.7°
Sets 18:42:41 0° 162° (SSE) 3,627 7.4 -21.1°
